906  
ASUS44 KEWX 301010  
RWRTX  
SOUTH TEXAS REGIONAL WEATHER ROUNDUP  
NATIONAL WEATHER SERVICE AUSTIN/SAN ANTONIO TX  
500 AM CDT TUE SEP 30 2014  
 
NOTE: "FAIR" INDICATED FEW OR NO CLOUDS BELOW 12,000 FEET WITH NO  
SIGNIFICANT WEATHER AND/OR S TO VISIBILITY
.  
 
* - THESE STATIONS ARE NOT NWS OR FAA STATIONS...AND ARE NOT SUBJECT  
TO NWS AND FAA QUALITY CONTROL.
 
 
TXZ171-172-183>190-301100-  
TEXAS HILL COUNTRY AND EDWARDS PLATEAU  
 
CITY SKY/WX TMP DP RH WIND PRES REMARKS
 
JUNCTION CLEAR 63 61 93 W3 29.92F  
*LLANO CLEAR 63 61 94 CALM 29.94S  
BURNET CLEAR 64 59 83 CALM 29.93F  
*HORSESHOE BAY CLEAR 64 60 88 CALM 29.91S  
*KERRVILLE CLEAR 61 59 94 CALM 29.93F  
*FREDERICKSBRG CLEAR 61 59 92 CALM 29.93F  
*ROCKSPRINGS CLEAR 64 63 94 SE5 29.96F  
*BOERNE STAGE CLEAR 61 59 94 CALM 29.92F  
*CASTROVILLE CLEAR 66 64 91 NW3 29.91S  
HONDO CLEAR 66 62 87 NE3 29.91S  
*UVALDE CLEAR 68 66 93 NE5 29.90S  
DEL RIO CLEAR 71 66 84 NE7 29.87F  
LAUGHLIN AFB CLEAR 68 66 95 E6 29.88F  
CARRIZO SPRGS CLEAR 68 68 100 CALM 29.87R FOG  

 
 
TXZ173-191>194-202-209-217>225-228-301100-  
CENTRAL AND SOUTH CENTRAL TEXAS  
 
CITY SKY/WX TMP DP RH WIND PRES REMARKS
 
GEORGETOWN CLEAR 64 61 88 CALM 29.90S  
AUSTIN/BERGSTM PTCLDY 64 62 93 CALM 29.88F  
AUSTIN/MABRY CLEAR 66 63 90 CALM 29.89F  
*AUSTIN/EXEC PTCLDY 66 63 88 CALM 29.89F  
*LAGO VISTA CLEAR 73 60 65 CALM 29.92S  
SAN MARCOS PTCLDY 66 57 72 CALM 29.90S  
NEW BRAUNFELS PTCLDY 66 63 90 N5 29.88S  
RANDOLPH AFB MOCLDY 66 63 88 N5 29.89S  
PT SAN ANTONIO CLEAR 67 64 90 CALM 29.87S  
SAN ANTONIO CLEAR 68 63 84 CALM 29.89F  
STINSON FIELD MOCLDY 70 66 87 CALM 29.87S  
*PLEASANTON PTCLDY 68 66 94 CALM 29.88S  
*LA GRANGE CLEAR 71 69 92 CALM 29.86F  
*GIDDINGS CLEAR 69 65 87 CALM 29.91F  
*GONZALES CLEAR 69 68 96 CALM 29.87S  

 
 
TXZ163>164-176>182-195>201-210>213-226-227-235-301100-  
SOUTHEAST TEXAS  
 
CITY SKY/WX TMP DP RH WIND PRES REMARKS
 
COLLEGE STN PTCLDY 73 68 84 CALM 29.88F  
*BRYAN CLEAR N/A N/A N/A CALM 29.87F  
*CALDWELL MOCLDY 68 66 94 CALM 29.91F  
*CROCKETT PTCLDY 72 70 94 CALM 29.92S FOG  
*BRENHAM CLEAR 71 68 90 CALM 29.88F  
HUNTSVILLE CLEAR 69 66 90 CALM 29.88F  
CONROE PTCLDY 69 67 93 CALM 29.88F  
HOUSTON BUSH PTCLDY 73 71 93 CALM 29.87S  
HOUSTON HOBBY PTCLDY 74 72 93 CALM 29.86R  
*HOUSTON SW AP PTCLDY 62 62 100 CALM 29.87R FOG  
PEARLAND CLOUDY 74 71 91 CALM 29.87S  
HOUSTON HOOKS PTCLDY 72 70 93 CALM 29.87S  
ELLINGTON FLD PTCLDY 75 73 94 CALM 29.86  
SUGAR LAND CLEAR 73 71 93 CALM 29.86S FOG  
*HOUSTON EXEC CLOUDY 72 72 100 CALM 29.88S FOG  
*CLEVELAND MUN CLEAR 70 69 98 CALM 29.89S FOG  
*WHARTON PTCLDY 70 70 98 N3 29.87S FOG  
*COLUMBUS NOT AVBL  

 
 
TXZ214>216-236>238-301100-  
THE UPPER TEXAS COAST  
 
CITY SKY/WX TMP DP RH WIND PRES REMARKS
 
*ORANGE N/A N/A N/A N/A CALM 29.88R FOG  
PORT ARTHUR CLEAR 74 72 93 NE5 29.86R  
GALVESTON PTCLDY 77 76 96 NE3 29.86S  
ANGLETON CLEAR 71 71 100 CALM 29.86S FOG  
*BAY CITY PTCLDY N/A N/A N/A CALM 29.85S FOG  
PALACIOS CLOUDY 73 72 96 N3 29.84F FOG  

 
 
TXZ229>234-239>247-301100-  
TEXAS COASTAL BEND AND RIO GRANDE PLAINS  
 
CITY SKY/WX TMP DP RH WIND PRES REMARKS
 
VICTORIA PTCLDY 73 72 96 N5 29.86F FOG  
*BEEVILLE CLEAR 72 72 100 CALM 29.85F FOG  
ROCKPORT MOCLDY 76 74 93 N6 29.83F  
*PORT ARANSAS MOCLDY 77 75 95 N9 29.83S  
*PORT LAVACA CLEAR 73 72 97 N3 29.85S FOG  
*INGLESIDE CLEAR 76 74 93 N5 29.83F FOG  
CORPUS CHRISTI PTCLDY 75 73 93 N6 29.83F  
CORPUS NAS MOCLDY 78 76 93 N12 29.82F  
*ROBSTOWN NOT AVBL  
ALICE CLOUDY 74 72 93 N6 29.83F  
KINGSVILLE NAS CLEAR 75 75 100 N8 29.83F  
COTULLA CLEAR 72 68 87 SE3 29.87S  
*FAITH RANCH CLEAR 70 68 94 CALM 29.88F  
LAREDO CLEAR 74 73 96 W3 29.89R  

 
 
TXZ248>255-301100-  
DEEP SOUTH TEXAS  
 
CITY SKY/WX TMP DP RH WIND PRES REMARKS
 
BROWNSVILLE MOCLDY 73 73 100 W5 29.82S  
PORT ISABEL PTCLDY 76 75 97 CALM 29.81S FOG  
*SOUTH PADRE CLEAR 77 77 100 W3 29.81S  
HARLINGEN CLOUDY 76 76 100 NW5 29.81F  
*HEBBRONVILLE N/A 72 71 94 CALM 29.86F  
MCALLEN CLOUDY 76 75 97 CALM 29.83F  
*WESLACO DRIZZLE 75 73 92 NW3 29.82F  
FALFURRIAS CLOUDY 74 73 96 E3 29.83F  
EDINBURG CLOUDY 76 73 90 CALM 29.83S  
*ZAPATA CLEAR 71 70 98 CALM 29.84F  

 
 
TXZ213>215-236>238-242>244-246-247-251-254-255-301100-  
CMAN STATIONS  
 
STATION/POSITION TIME TEMP WIND PRES WAVE
 
AIR SEA DIR/SP/G HT/PER  
(UTC) (F) (DEG/KT/KT) (MB) (FT/S)  
SABINE PASS 1000 74 79 20/ 4/ 5 1011.1  
SEA RIM ST PARK 1000 74 50/ 5/ 5 1011.5  
NORTH JETTY/GLS 1000 77 80 60/ 5/ 5 N/A  
EAGLE POINT 1000 77 80 50/ 2/ 3 1010.9  
MORGANS POINT 1000 76 CALM 1011.0  
MISSION/ARANSAS 0900 330/ 8 1012.0  
PORT O'CONNOR 1000 50/ 5/ 6 N/A  
PORT ARANSAS 1000 78 80 350/ 7/ 8 1010.5  
MALAQUITE BEACH 1000 78 80 30/ 7/ 7 1009.2  
BAFFIN BAY 1000 76 82 250/ 3/ 4 1009.8  
PORT ISABEL 1000 76 81 CALM 1009.8  

 
 
GMZ080-GMZ150>470-301100-  
OFFSHORE BUOY REPORTS  
 
STATION/POSITION TIME TEMP WIND PRES WAVE
 
AIR SEA DIR/SP/G HT/PER  
(UTC) (F) (DEG/KT/KT) (MB) (FT/S)  
20 E GALVESTON 1000 80 81 100/ 4/ 6 1010.3 1/ 6  
90 E PT ARANSAS 1000 81 83 100/ 8/ 10 1010.1 2/ 4  
35 NE PT MANSFLD 1000 82 83 110/ 8/ 10 1008.9 3/ 5  
200 E PT ISABEL 1000 80 84 110/ 6/ 8 1010.3 1/ 6  

 
 
CLICK HERE TO GO TO PREVIOUS BULLETINS.

The Nexlab TX Page Main Text Page